Погода в Криуше

Россия / Рязанская область     54°56′48″N   39°57′53″E
темп.,
°C
ветер,
м/с
пор.,
м/с
влажн.,
%
обл.,
%
осадки,
мм/ч
давл.,
гПа
погр.,
м
19 сентября, вс
вс1900:00+4в31073100 0.0 1024295
03:00+5в31075100 0.0 1024375
06:00+4в41076100 0.0 1024355
09:00+6в41066100 0.0 1024476
12:00+10в5849100 0.0 1023959
15:00+11в5945100 0.0 10211168
18:00+10в51049100 0.1 10201163
21:00+7в51273100 0.5 1020814
20 сентября, пн
пн2000:00+6в61490100 2.7 1019693
03:00+6в71693100 8.3 1018779
06:00+6в71594100 5.4 1017879
09:00+6в71493100 6.4 10171007
12:00+6в61492100 0.3 10171007
15:00+6в61392100 0.4 1017955
18:00+6в61393100 0.8 1017988
21:00+6в61393100 2.9 1017940
21 сентября, вт
вт2100:00+6в61393100 0.1 1016877
03:00+6в61395100 3.3 1015800
06:00+6в51295100 2.5 1014742
09:00+6в51295100 3.6 1014724
12:00+6в51195100 3.2 1013656
15:00+7в41096100 4.7 1012615
18:00+6всв41097100 3.1 1011553
21:00+6всв4997100 3.9 1011475
22 сентября, ср
ср2200:00+7всв3798100 0.4 1011314
03:00+7св3798100 0.4 1010332
06:00+6св3698100 0.2 1010322
09:00+6св2598100 0.5 1010288
12:00+7св2496100 0.1 1010385
15:00+10всв2387100 0.1 1010509
18:00+8св2595100 0.3 1010215
21:00+7ссв3696100 0.4 1010286
23 сентября, чт
чт2300:00+7ссв2597100 0.0 1010266
03:00+7с1398100 0.3 1009188
06:00+7сз1298100 0.2 1009136
09:00+8зюз129497 0.2 1009260
12:00+9ю2393100 0.3 1008316
15:00+8ю3693100 1.1 1007432
18:00+7ю4893100 0.9 1007610
21:00+6ю4693100 1.3 1007913